H160 KPBI-KTTS

Flight info

Callsign H160
Flight time 0h 50m
Altitude 12000
Route KPBI KTTS
Aircraft H160/L-SBDGRY/S

Departure

Time 2026-05-08 17:05
Airport Palm Beach International Airport (KPBI)

Arrival

Time 2026-05-08 17:56
Airport Space Florida Launch and Landing Facility (KTTS)
Time Latitude Longitude Altitude Speed Heading
2026-05-08 16:23 26.68640 -80.10785 17 ft 0 kts
2026-05-08 17:03 26.68633 -80.10794 53 ft 3 kts 13°
2026-05-08 17:03 26.68732 -80.10796 211 ft 30 kts 22°
2026-05-08 17:03 26.69044 -80.10600 291 ft 77 kts 34°
2026-05-08 17:04 26.69641 -80.10226 248 ft 124 kts 22°
2026-05-08 17:04 26.70647 -80.10246 126 ft 159 kts 352°
2026-05-08 17:04 26.71585 -80.10446 63 ft 11 kts 105°
2026-05-08 17:04 26.71566 -80.10341 202 ft 45 kts 87°
2026-05-08 17:05 26.71309 -80.09755 203 ft 97 kts 121°
2026-05-08 17:05 26.70798 -80.09228 321 ft 108 kts 140°
2026-05-08 17:05 26.70038 -80.08740 506 ft 141 kts 149°
2026-05-08 17:05 26.69071 -80.08329 702 ft 150 kts 162°
2026-05-08 17:06 26.68046 -80.08127 733 ft 155 kts 168°
2026-05-08 17:06 26.67096 -80.07658 721 ft 145 kts 141°
2026-05-08 17:06 26.66474 -80.06793 677 ft 143 kts 110°
2026-05-08 17:06 26.66313 -80.05742 669 ft 136 kts 84°
2026-05-08 17:07 26.66624 -80.04785 649 ft 131 kts 56°
2026-05-08 17:07 26.67322 -80.04133 640 ft 134 kts 34°
2026-05-08 17:07 26.68205 -80.03801 644 ft 137 kts
2026-05-08 17:07 26.69160 -80.03849 651 ft 135 kts 359°
2026-05-08 17:08 26.69772 -80.03929 651 ft 133 kts 358°
2026-05-08 17:08 26.70691 -80.04067 652 ft 131 kts 357°
2026-05-08 17:08 26.71587 -80.04205 565 ft 129 kts 358°
2026-05-08 17:08 26.72833 -80.04357 460 ft 135 kts
2026-05-08 17:09 26.73454 -80.04332 426 ft 133 kts
2026-05-08 17:09 26.74378 -80.04254 402 ft 133 kts
2026-05-08 17:09 26.75284 -80.04183 284 ft 133 kts
2026-05-08 17:09 26.76213 -80.04133 234 ft 136 kts
2026-05-08 17:10 26.77136 -80.04101 217 ft 133 kts
2026-05-08 17:10 26.78054 -80.04076 204 ft 133 kts
2026-05-08 17:10 26.78986 -80.04042 197 ft 135 kts
2026-05-08 17:10 26.79912 -80.04011 191 ft 132 kts
2026-05-08 17:11 26.80849 -80.03971 197 ft 134 kts
2026-05-08 17:11 26.81786 -80.03936 202 ft 134 kts
2026-05-08 17:11 26.82721 -80.03986 181 ft 140 kts 351°
2026-05-08 17:11 26.83601 -80.04450 189 ft 139 kts 336°
2026-05-08 17:12 26.84477 -80.04906 192 ft 138 kts 341°
2026-05-08 17:12 26.85350 -80.05328 182 ft 139 kts 340°
2026-05-08 17:12 26.86241 -80.05751 197 ft 137 kts 342°
2026-05-08 17:12 26.87119 -80.06174 182 ft 140 kts 341°
2026-05-08 17:13 26.88004 -80.06602 198 ft 137 kts 340°
2026-05-08 17:13 26.88901 -80.07015 190 ft 139 kts 343°
2026-05-08 17:13 26.89773 -80.07427 182 ft 135 kts 340°
2026-05-08 17:13 26.90643 -80.07841 196 ft 135 kts 341°
2026-05-08 17:14 26.91504 -80.08257 193 ft 134 kts 340°
2026-05-08 17:14 26.92359 -80.08666 185 ft 136 kts 341°
2026-05-08 17:14 26.93229 -80.09083 199 ft 135 kts 341°
2026-05-08 17:14 26.94092 -80.09496 186 ft 135 kts 341°
2026-05-08 17:15 26.94959 -80.09918 189 ft 135 kts 342°
2026-05-08 17:15 26.95799 -80.10343 190 ft 132 kts 340°
2026-05-08 17:15 26.96655 -80.10775 200 ft 135 kts 342°
2026-05-08 17:15 26.97504 -80.11205 180 ft 136 kts 340°
2026-05-08 17:16 26.98396 -80.11639 167 ft 147 kts 342°
2026-05-08 17:16 26.99364 -80.12128 190 ft 154 kts 341°
2026-05-08 17:16 27.00363 -80.12496 195 ft 151 kts 351°
2026-05-08 17:16 27.01398 -80.12745 203 ft 151 kts 353°
2026-05-08 17:17 27.02440 -80.12968 195 ft 153 kts 353°
2026-05-08 17:17 27.03474 -80.13179 192 ft 151 kts 353°
2026-05-08 17:17 27.04510 -80.13386 198 ft 149 kts 353°
2026-05-08 17:17 27.05542 -80.13587 180 ft 154 kts 353°
2026-05-08 17:18 27.06578 -80.13794 200 ft 150 kts 353°
2026-05-08 17:18 27.07615 -80.14006 202 ft 150 kts 353°
2026-05-08 17:18 27.08624 -80.14210 194 ft 149 kts 354°
2026-05-08 17:18 27.09630 -80.14422 181 ft 148 kts 352°
2026-05-08 17:19 27.10663 -80.14635 199 ft 151 kts 353°
2026-05-08 17:19 27.11689 -80.14834 194 ft 148 kts 354°
2026-05-08 17:19 27.12710 -80.15042 197 ft 151 kts 352°
2026-05-08 17:19 27.13733 -80.15235 200 ft 147 kts 353°
2026-05-08 17:20 27.14752 -80.15430 195 ft 148 kts 354°
2026-05-08 17:20 27.15777 -80.15632 174 ft 150 kts 354°
2026-05-08 17:20 27.16785 -80.15845 171 ft 149 kts 352°
2026-05-08 17:20 27.17808 -80.16061 192 ft 148 kts 354°
2026-05-08 17:21 27.18815 -80.16279 181 ft 152 kts 353°
2026-05-08 17:21 27.19845 -80.16487 194 ft 151 kts 353°
2026-05-08 17:21 27.20888 -80.16700 192 ft 151 kts 353°
2026-05-08 17:21 27.21908 -80.17000 193 ft 152 kts 340°
2026-05-08 17:22 27.22771 -80.17686 193 ft 155 kts 320°
2026-05-08 17:22 27.23511 -80.18577 204 ft 153 kts 321°
2026-05-08 17:22 27.24374 -80.19257 195 ft 153 kts 336°
2026-05-08 17:22 27.25350 -80.19710 190 ft 153 kts 347°
2026-05-08 17:23 27.26347 -80.20127 206 ft 155 kts 341°
2026-05-08 17:23 27.27288 -80.20624 192 ft 148 kts 339°
2026-05-08 17:23 27.28238 -80.21154 195 ft 156 kts 339°
2026-05-08 17:23 27.29195 -80.21689 192 ft 153 kts 338°
2026-05-08 17:24 27.30157 -80.22212 191 ft 154 kts 338°
2026-05-08 17:24 27.31135 -80.22686 193 ft 152 kts 346°
2026-05-08 17:24 27.32149 -80.22993 197 ft 149 kts 350°
2026-05-08 17:24 27.33160 -80.23307 189 ft 152 kts 343°
2026-05-08 17:25 27.34118 -80.23837 184 ft 157 kts 335°
2026-05-08 17:25 27.35065 -80.24407 208 ft 149 kts 336°
2026-05-08 17:25 27.36008 -80.24901 187 ft 153 kts 343°
2026-05-08 17:25 27.37005 -80.25258 190 ft 151 kts 349°
2026-05-08 17:26 27.38020 -80.25619 203 ft 151 kts 344°
2026-05-08 17:26 27.39000 -80.26089 189 ft 156 kts 341°
2026-05-08 17:26 27.39969 -80.26618 196 ft 153 kts 335°
2026-05-08 17:26 27.40881 -80.27235 189 ft 154 kts 333°
2026-05-08 17:27 27.41813 -80.27781 196 ft 148 kts 344°
2026-05-08 17:27 27.42831 -80.28101 182 ft 156 kts 351°
2026-05-08 17:27 27.43883 -80.28363 198 ft 155 kts 352°
2026-05-08 17:27 27.44933 -80.28612 200 ft 153 kts 352°
2026-05-08 17:28 27.45982 -80.28868 196 ft 154 kts 352°
2026-05-08 17:28 27.47007 -80.29212 181 ft 157 kts 346°
2026-05-08 17:28 27.48033 -80.29601 196 ft 155 kts 345°
2026-05-08 17:28 27.49072 -80.29992 207 ft 157 kts 347°
2026-05-08 17:29 27.50104 -80.30394 188 ft 157 kts 346°
2026-05-08 17:29 27.51138 -80.30740 185 ft 156 kts 349°
2026-05-08 17:29 27.52180 -80.31069 201 ft 154 kts 346°
2026-05-08 17:29 27.53202 -80.31459 202 ft 156 kts 346°
2026-05-08 17:30 27.54236 -80.31812 193 ft 156 kts 348°
2026-05-08 17:30 27.55273 -80.32148 153 ft 155 kts 348°
2026-05-08 17:30 27.56310 -80.32487 150 ft 155 kts 349°
2026-05-08 17:30 27.57347 -80.32822 144 ft 156 kts 347°
2026-05-08 17:31 27.58387 -80.33152 151 ft 153 kts 349°
2026-05-08 17:31 27.59424 -80.33484 148 ft 155 kts 349°
2026-05-08 17:31 27.60458 -80.33832 145 ft 155 kts 348°
2026-05-08 17:31 27.61483 -80.34185 154 ft 153 kts 348°
2026-05-08 17:32 27.62513 -80.34542 156 ft 154 kts 349°
2026-05-08 17:32 27.63536 -80.34895 149 ft 155 kts 348°
2026-05-08 17:32 27.64571 -80.35260 157 ft 155 kts 349°
2026-05-08 17:32 27.65594 -80.35620 154 ft 154 kts 348°
2026-05-08 17:33 27.66628 -80.35979 153 ft 156 kts 348°
2026-05-08 17:33 27.67662 -80.36339 153 ft 155 kts 348°
2026-05-08 17:33 27.68683 -80.36691 155 ft 155 kts 349°
2026-05-08 17:33 27.69712 -80.37054 151 ft 155 kts 348°
2026-05-08 17:34 27.70739 -80.37413 155 ft 154 kts 348°
2026-05-08 17:34 27.71773 -80.37769 151 ft 156 kts 348°
2026-05-08 17:34 27.72800 -80.38130 151 ft 154 kts 348°
2026-05-08 17:34 27.73829 -80.38488 155 ft 155 kts 348°
2026-05-08 17:35 27.74868 -80.38846 157 ft 156 kts 348°
2026-05-08 17:35 27.75902 -80.39195 152 ft 155 kts 348°
2026-05-08 17:35 27.76923 -80.39536 153 ft 156 kts 348°
2026-05-08 17:35 27.77893 -80.40123 155 ft 158 kts 332°
2026-05-08 17:36 27.78770 -80.40838 150 ft 158 kts 329°
2026-05-08 17:36 27.79697 -80.41488 158 ft 155 kts 340°
2026-05-08 17:36 27.80704 -80.41911 147 ft 156 kts 348°
2026-05-08 17:36 27.81720 -80.42368 153 ft 157 kts 341°
2026-05-08 17:37 27.82701 -80.42895 85 ft 157 kts 340°
2026-05-08 17:37 27.83681 -80.43439 69 ft 157 kts 339°
2026-05-08 17:37 27.84667 -80.43979 60 ft 157 kts 339°
2026-05-08 17:37 27.85657 -80.44516 55 ft 158 kts 339°
2026-05-08 17:38 27.86682 -80.44917 52 ft 155 kts 353°
2026-05-08 17:38 27.87671 -80.45415 50 ft 161 kts 330°
2026-05-08 17:38 27.88603 -80.46084 52 ft 156 kts 342°
2026-05-08 17:38 27.89622 -80.46565 32 ft 165 kts 339°
2026-05-08 17:39 27.90648 -80.47149 45 ft 164 kts 338°
2026-05-08 17:39 27.91664 -80.47746 45 ft 165 kts 338°
2026-05-08 17:39 27.92682 -80.48353 44 ft 165 kts 338°
2026-05-08 17:39 27.93705 -80.48938 42 ft 164 kts 341°
2026-05-08 17:40 27.94759 -80.49440 41 ft 165 kts 342°
2026-05-08 17:40 27.95823 -80.49930 41 ft 165 kts 342°
2026-05-08 17:40 27.96873 -80.50458 41 ft 165 kts 340°
2026-05-08 17:40 27.97919 -80.51004 40 ft 165 kts 341°
2026-05-08 17:41 27.98968 -80.51562 37 ft 168 kts 340°
2026-05-08 17:41 28.00025 -80.52118 38 ft 167 kts 340°
2026-05-08 17:41 28.01083 -80.52666 35 ft 167 kts 340°
2026-05-08 17:41 28.02141 -80.53218 36 ft 167 kts 341°
2026-05-08 17:42 28.03199 -80.53773 35 ft 168 kts 340°
2026-05-08 17:42 28.04264 -80.54307 35 ft 167 kts 342°
2026-05-08 17:42 28.05342 -80.54793 35 ft 167 kts 343°
2026-05-08 17:42 28.06426 -80.55270 35 ft 167 kts 343°
2026-05-08 17:43 28.07494 -80.55742 35 ft 167 kts 343°
2026-05-08 17:43 28.08576 -80.56223 35 ft 167 kts 343°
2026-05-08 17:43 28.09658 -80.56703 36 ft 167 kts 343°
2026-05-08 17:43 28.10769 -80.57034 34 ft 164 kts 358°
2026-05-08 17:44 28.11907 -80.57137 32 ft 164 kts 358°
2026-05-08 17:44 28.13043 -80.57302 20 ft 166 kts 357°
2026-05-08 17:44 28.14193 -80.57501 15 ft 167 kts 357°
2026-05-08 17:44 28.15304 -80.57702 39 ft 149 kts 357°
2026-05-08 17:45 28.16328 -80.57898 38 ft 156 kts 355°
2026-05-08 17:45 28.17334 -80.58103 234 ft 124 kts 356°
2026-05-08 17:45 28.18110 -80.58300 191 ft 114 kts 348°
2026-05-08 17:45 28.18890 -80.58743 147 ft 143 kts 337°
2026-05-08 17:46 28.19839 -80.59331 147 ft 166 kts 336°
2026-05-08 17:46 28.20883 -80.59962 166 ft 171 kts 338°
2026-05-08 17:46 28.21961 -80.60504 162 ft 167 kts 352°
2026-05-08 17:46 28.23112 -80.60691 156 ft 167 kts
2026-05-08 17:47 28.24271 -80.60810 159 ft 167 kts
2026-05-08 17:47 28.25424 -80.60959 158 ft 167 kts 358°
2026-05-08 17:47 28.26581 -80.61152 159 ft 167 kts 357°
2026-05-08 17:47 28.27342 -80.61298 156 ft 167 kts 356°
2026-05-08 17:48 28.28880 -80.61621 158 ft 169 kts 354°
2026-05-08 17:48 28.30015 -80.61877 156 ft 168 kts 354°
2026-05-08 17:48 28.31169 -80.62142 160 ft 169 kts 354°
2026-05-08 17:48 28.32315 -80.62404 158 ft 168 kts 354°
2026-05-08 17:49 28.33445 -80.62670 181 ft 161 kts 352°
2026-05-08 17:49 28.34547 -80.62938 170 ft 165 kts 353°
2026-05-08 17:49 28.35676 -80.63207 191 ft 164 kts 352°
2026-05-08 17:49 28.36797 -80.63477 186 ft 166 kts 352°
2026-05-08 17:50 28.37925 -80.63747 196 ft 165 kts 352°
2026-05-08 17:50 28.39057 -80.64018 196 ft 166 kts 353°
2026-05-08 17:50 28.40181 -80.64289 192 ft 165 kts 352°
2026-05-08 17:50 28.41307 -80.64558 199 ft 166 kts 352°
2026-05-08 17:51 28.42437 -80.64830 200 ft 166 kts 353°
2026-05-08 17:51 28.43555 -80.65099 204 ft 165 kts 353°
2026-05-08 17:51 28.44689 -80.65370 201 ft 166 kts 353°
2026-05-08 17:51 28.45813 -80.65641 195 ft 165 kts 353°
2026-05-08 17:52 28.46928 -80.65909 199 ft 161 kts 353°
2026-05-08 17:52 28.48038 -80.66177 202 ft 163 kts 353°
2026-05-08 17:52 28.50193 -80.66623 220 ft 143 kts 356°
2026-05-08 17:53 28.51164 -80.66787 208 ft 139 kts 358°
2026-05-08 17:53 28.52112 -80.66551 122 ft 145 kts 14°
2026-05-08 17:53 28.52761 -80.66423 194 ft 140 kts 11°
2026-05-08 17:53 28.53728 -80.66121 90 ft 145 kts 15°
2026-05-08 17:54 28.54710 -80.65879 135 ft 143 kts 14°
2026-05-08 17:54 28.55686 -80.65646 174 ft 142 kts 13°
2026-05-08 17:54 28.56522 -80.65438 202 ft 97 kts 15°
2026-05-08 17:54 28.57061 -80.65277 310 ft 69 kts 17°
2026-05-08 17:55 28.57485 -80.65132 356 ft 61 kts 21°
2026-05-08 17:55 28.57869 -80.64973 386 ft 62 kts 28°
2026-05-08 17:55 28.58320 -80.64775 310 ft 75 kts 15°
2026-05-08 17:55 28.58779 -80.64848 354 ft 64 kts 310°
2026-05-08 17:56 28.58813 -80.65285 467 ft 56 kts 264°
2026-05-08 17:56 28.58540 -80.65573 456 ft 61 kts 158°
2026-05-08 17:56 28.58410 -80.65277 500 ft 47 kts 77°
2026-05-08 17:56 28.58369 -80.64908 571 ft 46 kts 95°
2026-05-08 17:57 28.58305 -80.64568 631 ft 42 kts 75°
2026-05-08 17:57 28.58254 -80.64244 381 ft 48 kts 68°
2026-05-08 17:57 28.58597 -80.63874 211 ft 79 kts 37°
2026-05-08 17:57 28.58952 -80.63481 138 ft 66 kts 53°
2026-05-08 17:58 28.59162 -80.63096 62 ft 42 kts 62°
2026-05-08 17:58 28.59289 -80.62795 92 ft 51 kts 60°
2026-05-08 17:58 28.59462 -80.62344 118 ft 71 kts 66°
2026-05-08 17:58 28.59697 -80.61806 139 ft 81 kts 66°
2026-05-08 17:59 28.59920 -80.61200 129 ft 73 kts 66°
2026-05-08 17:59 28.60145 -80.60907 157 ft 30 kts 34°
2026-05-08 17:59 28.60256 -80.60744 154 ft 33 kts 74°
2026-05-08 17:59 28.60445 -80.60573 157 ft 40 kts 45°
2026-05-08 18:00 28.60517 -80.60248 246 ft 31 kts 57°
2026-05-08 18:00 28.60785 -80.60438 300 ft 25 kts 296°
2026-05-08 18:00 28.60752 -80.60560 284 ft 8 kts 74°
2026-05-08 18:01 28.60736 -80.60565 297 ft 1 kts 67°
2026-05-08 18:01 28.60738 -80.60564 287 ft 0 kts 67°
2026-05-08 18:01 28.60752 -80.60572 284 ft 19 kts 353°
2026-05-08 18:01 28.61020 -80.60712 297 ft 51 kts 336°
2026-05-08 18:02 28.61389 -80.60910 282 ft 76 kts 339°
2026-05-08 18:02 28.61914 -80.61275 301 ft 86 kts 338°
2026-05-08 18:02 28.62397 -80.61599 295 ft 73 kts 321°
2026-05-08 18:02 28.62771 -80.61842 299 ft 49 kts 324°
2026-05-08 18:03 28.62982 -80.61972 296 ft 14 kts 191°
2026-05-08 18:03 28.62998 -80.61978 294 ft 2 kts 191°
2026-05-08 18:03 28.62998 -80.61983 299 ft 0 kts 190°
2026-05-08 18:03 28.62997 -80.61983 302 ft 0 kts 190°
2026-05-08 18:04 28.62996 -80.61982 303 ft 0 kts 190°
2026-05-08 18:04 28.62995 -80.61982 305 ft 0 kts 190°
2026-05-08 18:04 28.62995 -80.61983 305 ft 0 kts 190°
2026-05-08 18:05 28.62995 -80.61982 305 ft 0 kts 190°
2026-05-08 18:05 28.63003 -80.62063 307 ft 30 kts 188°
2026-05-08 18:05 28.62954 -80.62344 307 ft 40 kts 252°
2026-05-08 18:06 28.62857 -80.62631 313 ft 44 kts 261°
2026-05-08 18:06 28.62657 -80.63081 295 ft 92 kts 244°
2026-05-08 18:06 28.62381 -80.63741 320 ft 79 kts 247°
2026-05-08 18:06 28.62144 -80.64247 287 ft 77 kts 246°
2026-05-08 18:07 28.61881 -80.64823 288 ft 84 kts 245°
2026-05-08 18:07 28.61623 -80.65414 287 ft 83 kts 246°
2026-05-08 18:07 28.61356 -80.65995 293 ft 83 kts 246°
2026-05-08 18:07 28.61094 -80.66581 285 ft 83 kts 246°
2026-05-08 18:08 28.60834 -80.67157 288 ft 83 kts 245°
2026-05-08 18:08 28.60588 -80.67749 289 ft 83 kts 248°
2026-05-08 18:08 28.60299 -80.68319 292 ft 83 kts 233°
2026-05-08 18:08 28.59965 -80.68391 475 ft 35 kts 113°
2026-05-08 18:09 28.59918 -80.68151 519 ft 20 kts 102°
2026-05-08 18:09 28.59876 -80.68108 133 ft 17 kts 38°
2026-05-08 18:09 28.59956 -80.68162 46 ft 24 kts 65°
2026-05-08 18:09 28.59942 -80.67998 52 ft 17 kts 64°
2026-05-08 18:10 28.59962 -80.67952 16 ft 8 kts 63°
2026-05-08 18:10 28.59963 -80.67960 13 ft 0 kts 68°